FW7016 Weather Reports


Display with metric or nautical units.
time (UTC)temp
F
wind
direction
speed
MPH
gust
MPH
rain 1hr
in
rain 24hr
in
rain mn
in
humidity
%
barometer
mb
20260509072751 47 207 1.0 5.0 0.00 0.00 0.00 74 1013.2
20260509072248 47 204 3.0 3.0 0.00 0.00 0.00 74 1013.2
20260509071744 48 202 0.0 0.0 0.00 0.00 0.00 73 1013.4
20260509071241 49 189 3.0 3.0 0.00 0.00 0.00 71 1013.5
20260509070738 50 176 2.0 3.0 0.00 0.00 0.00 68 1013.2
20260509070235 49 170 0.0 1.0 0.00 0.00 0.00 69 1013.4
20260509065731 49 173 0.0 0.0 0.00 0.00 0.00 70 1013.7
20260509065227 48 140 2.0 3.0 0.00 0.00 0.00 70 1014.0
20260509064724 49 184 1.0 1.0 0.00 0.00 0.00 72 1014.0
20260509064222 50 192 1.0 2.0 0.00 0.00 0.00 70 1013.6
20260509063719 50 189 2.0 2.0 0.00 0.00 0.00 68 1013.8
20260509063215 50 186 0.0 0.0 0.00 0.00 0.00 67 1014.1
20260509062712 50 182 0.0 0.0 0.00 0.00 0.00 67 1014.3
20260509062209 50 199 3.0 3.0 0.00 0.00 0.00 67 1014.3
20260509061707 50 197 3.0 5.0 0.00 0.00 0.00 68 1014.2
20260509061204 50 206 2.0 5.0 0.00 0.00 0.00 69 1014.2
20260509060701 49 211 5.0 7.0 0.00 0.00 0.00 69 1014.3
20260509060157 50 216 1.0 6.0 0.00 0.00 0.00 69 1014.2
20260509055653 51 216 5.0 6.0 0.00 0.00 0.00 67 1014.5
20260509055149 51 200 2.0 5.0 0.00 0.00 0.00 66 1014.4
20260509054646 51 179 4.0 6.0 0.00 0.00 0.00 65 1014.7
20260509054144 51 177 4.0 7.0 0.00 0.00 0.00 66 1014.3
20260509053642 50 170 6.0 7.0 0.00 0.00 0.00 65 1014.4
20260509053138 50 192 5.0 7.0 0.00 0.00 0.00 67 1014.4
20260509052636 50 200 5.0 6.0 0.00 0.00 0.00 68 1014.3
20260509052133 50 196 6.0 8.0 0.00 0.00 0.00 67 1014.5
20260509051631 50 190 1.0 6.0 0.00 0.00 0.00 69 1014.8
20260509051128 50 203 5.0 6.0 0.00 0.00 0.00 69 1014.7
20260509050625 50 201 1.0 6.0 0.00 0.00 0.00 69 1014.7
20260509050121 51 176 4.0 6.0 0.00 0.00 0.00 68 1014.5
20260509045620 51 195 4.0 6.0 0.00 0.00 0.00 68 1014.8
20260509045116 51 178 1.0 6.0 0.00 0.00 0.00 68 1015.0
20260509044613 51 171 0.0 0.0 0.00 0.00 0.00 70 1014.9
20260509044110 52 185 2.0 6.0 0.00 0.00 0.00 67 1015.3
20260509043607 52 182 0.0 1.0 0.00 0.00 0.00 66 1015.1
20260509043102 52 185 0.0 0.0 0.00 0.00 0.00 67 1015.4
20260509042559 52 183 0.0 6.0 0.00 0.00 0.00 67 1015.1
20260509042055 52 181 0.0 0.0 0.00 0.00 0.00 69 1015.1
20260509041552 53 198 0.0 0.0 0.00 0.00 0.00 67 1015.3
20260509041049 52 163 0.0 0.0 0.00 0.00 0.00 68 1015.1
20260509040548 52 146 0.0 0.0 0.00 0.00 0.00 70 1015.3
20260509040044 53 162 0.0 0.0 0.00 0.00 0.00 68 1015.4
20260509035541 53 182 0.0 0.0 0.00 0.00 0.00 70 1015.4
20260509035038 53 180 0.0 0.0 0.00 0.00 0.00 68 1015.3
20260509034536 53 192 0.0 0.0 0.00 0.00 0.00 64 1015.1
20260509034033 52 189 0.0 0.0 0.00 0.00 0.00 68 1015.4
20260509033530 53 184 3.0 5.0 0.00 0.00 0.00 68 1015.5
20260509033027 53 188 3.0 5.0 0.00 0.00 0.00 66 1015.3
20260509032524 52 191 4.0 6.0 0.00 0.00 0.00 66 1015.5
20260509032021 53 200 4.0 6.0 0.00 0.00 0.00 69 1015.3
20260509031519 53 192 5.0 6.0 0.00 0.00 0.00 64 1015.4
20260509031016 53 193 3.0 3.0 0.00 0.00 0.00 66 1015.1
20260509030514 54 172 0.0 0.0 0.00 0.00 0.00 69 1015.0
20260509030010 55 163 1.0 2.0 0.00 0.00 0.00 65 1015.0
20260509025506 55 163 0.0 0.0 0.00 0.00 0.00 64 1014.9
20260509025002 56 162 0.0 3.0 0.00 0.00 0.00 62 1015.1
20260509024458 56 158 0.0 0.0 0.00 0.00 0.00 63 1014.9
20260509023954 56 158 0.0 5.0 0.00 0.00 0.00 63 1015.0
20260509023452 57 151 0.0 0.0 0.00 0.00 0.00 59 1014.8
20260509022949 57 145 0.0 0.0 0.00 0.00 0.00 59 1014.5
20260509022445 58 146 0.0 0.0 0.00 0.00 0.00 58 1014.2
20260509021943 58 137 0.0 0.0 0.00 0.00 0.00 56 1014.4
20260509021440 59 134 4.0 6.0 0.00 0.00 0.00 52 1014.2
20260509020937 59 134 0.0 0.0 0.00 0.00 0.00 53 1014.5
20260509020435 60 127 0.0 0.0 0.00 0.00 0.00 49 1014.3
20260509015932 60 126 0.0 5.0 0.00 0.00 0.00 47 1014.2
20260509015431 60 133 5.0 5.0 0.00 0.00 0.00 49 1014.2
20260509014927 60 104 3.0 5.0 0.00 0.00 0.00 46 1014.2
20260509014424 60 135 2.0 2.0 0.00 0.00 0.00 48 1014.1
20260509013920 61 127 2.0 3.0 0.00 0.00 0.00 46 1014.1
20260509013417 62 106 2.0 3.0 0.00 0.00 0.00 44 1014.0
20260509012913 61 65 0.0 5.0 0.00 0.00 0.00 43 1013.8
20260509012410 62 47 1.0 3.0 0.00 0.00 0.00 44 1014.0
20260509011907 62 61 3.0 6.0 0.00 0.00 0.00 42 1013.8
20260509011404 63 35 3.0 7.0 0.00 0.00 0.00 42 1014.1
20260509010902 64 19 6.0 7.0 0.00 0.00 0.00 40 1013.8
20260509010359 64 25 5.0 8.0 0.00 0.00 0.00 39 1014.1
20260509005856 64 19 5.0 9.0 0.00 0.00 0.00 38 1014.0
20260509005354 64 38 5.0 7.0 0.00 0.00 0.00 38 1014.1
20260509004849 64 3 5.0 8.0 0.00 0.00 0.00 37 1013.8
20260509004345 65 33 4.0 8.0 0.00 0.00 0.00 36 1014.0
20260509003843 65 18 4.0 8.0 0.00 0.00 0.00 36 1014.1
20260509003341 65 6 6.0 10.0 0.00 0.00 0.00 36 1014.1
20260509002838 65 17 7.0 9.0 0.00 0.00 0.00 37 1014.0
20260509002335 65 9 6.0 17.0 0.00 0.00 0.00 37 1014.1
20260509001833 65 306 7.0 9.0 0.00 0.00 0.00 35 1014.0
20260509001328 66 7 10.0 16.0 0.00 0.00 0.00 35 1013.8
20260509000826 65 258 5.0 8.0 0.00 0.00 0.00 35 1014.0
20260509000325 65 26 3.0 16.0 0.00 0.00 0.00 35 1014.0
20260508235820 66 352 9.0 14.0 0.00 0.00 0.00 34 1014.1
20260508235317 66 42 7.0 10.0 0.00 0.00 0.00 36 1014.1
20260508234814 66 319 11.0 16.0 0.00 0.00 0.00 34 1014.2
20260508234310 66 14 9.0 21.0 0.00 0.00 0.00 35 1014.1
20260508233809 66 13 8.0 11.0 0.00 0.00 0.00 35 1014.2
20260508233308 66 355 10.0 16.0 0.00 0.00 0.00 35 1014.1
20260508232804 66 22 17.0 18.0 0.00 0.00 0.00 34 1014.2
20260508232300 65 142 3.0 9.0 0.00 0.00 0.00 36 1013.8
20260508231800 66 339 11.0 15.0 0.00 0.00 0.00 35 1014.2
20260508231255 66 351 8.0 13.0 0.00 0.00 0.00 36 1014.1
20260508230752 66 12 9.0 13.0 0.00 0.00 0.00 35 1014.1
20260508230248 66 316 8.0 14.0 0.00 0.00 0.00 35 1014.3
20260508225746 66 6 14.0 20.0 0.00 0.00 0.00 34 1014.3
20260508225242 66 314 7.0 13.0 0.00 0.00 0.00 35 1014.2
20260508224740 66 5 14.0 20.0 0.00 0.00 0.00 33 1014.1
20260508224238 66 24 8.0 16.0 0.00 0.00 0.00 33 1014.0
20260508223735 66 5 12.0 16.0 0.00 0.00 0.00 34 1014.2
20260508223232 66 303 15.0 29.0 0.00 0.00 0.00 33 1014.5
20260508222730 66 275 16.0 25.0 0.00 0.00 0.00 34 1014.3
20260508222227 66 304 20.0 27.0 0.00 0.00 0.00 32 1014.7
20260508221723 66 278 11.0 20.0 0.00 0.00 0.00 33 1014.4
20260508221219 65 11 16.0 18.0 0.00 0.00 0.00 32 1014.5
20260508220715 65 0 14.0 21.0 0.00 0.00 0.00 36 1014.8
20260508220212 66 307 11.0 17.0 0.00 0.00 0.00 35 1014.8
20260508215708 66 311 13.0 21.0 0.00 0.00 0.00 35 1014.8
20260508215205 64 192 2.0 8.0 0.00 0.00 0.00 37 1014.9
20260508214702 64 289 8.0 16.0 0.00 0.00 0.00 39 1015.0
20260508214200 64 358 12.0 17.0 0.00 0.00 0.00 40 1015.1
20260508213656 65 2 5.0 11.0 0.00 0.00 0.00 37 1015.0
20260508213152 65 311 12.0 16.0 0.00 0.00 0.00 35 1015.4
20260508212649 64 9 5.0 10.0 0.00 0.00 0.00 37 1015.3
20260508212146 64 218 7.0 16.0 0.00 0.00 0.00 37 1015.6
20260508211641 64 337 10.0 16.0 0.00 0.00 0.00 37 1015.4
20260508211137 64 296 11.0 17.0 0.00 0.00 0.00 40 1015.5
20260508210634 63 20 10.0 13.0 0.00 0.00 0.00 37 1015.5
20260508210132 63 125 5.0 15.0 0.00 0.00 0.00 38 1015.6
20260508205629 63 320 7.0 17.0 0.00 0.00 0.00 39 1016.1
20260508205125 63 29 10.0 15.0 0.00 0.00 0.00 40 1015.8
20260508204621 64 1 11.0 14.0 0.00 0.00 0.00 40 1015.6
20260508204117 63 333 10.0 11.0 0.00 0.00 0.00 38 1016.1
20260508203614 63 280 13.0 16.0 0.00 0.00 0.00 41 1016.1
20260508203110 63 318 9.0 14.0 0.00 0.00 0.00 40 1016.0
20260508202606 62 320 7.0 18.0 0.00 0.00 0.00 43 1016.1
20260508202104 62 7 13.0 17.0 0.00 0.00 0.00 41 1016.1
20260508201600 63 327 11.0 13.0 0.00 0.00 0.00 40 1016.1
20260508201057 62 324 10.0 16.0 0.00 0.00 0.00 42 1016.3
20260508200554 61 346 4.0 10.0 0.00 0.00 0.00 42 1016.3
20260508200049 62 15 7.0 14.0 0.00 0.00 0.00 42 1016.3
20260508195547 61 3 12.0 23.0 0.00 0.00 0.00 42 1016.7
20260508195043 61 60 3.0 14.0 0.00 0.00 0.00 41 1016.4
20260508194540 62 26 6.0 14.0 0.00 0.00 0.00 40 1016.4
20260508194037 62 338 8.0 10.0 0.00 0.00 0.00 43 1016.4
20260508193533 61 333 10.0 14.0 0.00 0.00 0.00 43 1016.8
20260508193030 61 29 12.0 15.0 0.00 0.00 0.00 41 1016.7
20260508192527 61 0 12.0 14.0 0.00 0.00 0.00 43 1016.8
20260508192024 60 291 8.0 11.0 0.00 0.00 0.00 44 1016.7
20260508191521 60 2 12.0 16.0 0.00 0.00 0.00 44 1016.8
20260508191017 60 17 11.0 17.0 0.00 0.00 0.00 46 1016.9
20260508190515 60 311 13.0 20.0 0.00 0.00 0.00 45 1016.6
20260508190011 60 35 9.0 13.0 0.00 0.00 0.00 48 1016.8
20260508185508 59 38 9.0 18.0 0.00 0.00 0.00 47 1017.0
20260508185006 60 344 8.0 14.0 0.00 0.00 0.00 46 1017.0
20260508184504 60 284 7.0 10.0 0.00 0.00 0.00 47 1017.0
20260508184000 59 339 10.0 14.0 0.00 0.00 0.00 50 1017.1
20260508183456 59 337 10.0 15.0 0.00 0.00 0.00 49 1016.9
20260508182951 59 19 14.0 18.0 0.00 0.00 0.00 49 1017.0
20260508182449 58 39 2.0 11.0 0.00 0.00 0.00 52 1017.3
20260508181944 58 16 10.0 13.0 0.00 0.00 0.00 54 1017.4
20260508181441 59 307 6.0 11.0 0.00 0.00 0.00 50 1017.3
20260508180939 58 247 7.0 13.0 0.00 0.00 0.00 52 1017.4
20260508180435 57 324 10.0 13.0 0.00 0.00 0.00 55 1017.4
20260508175931 57 5 10.0 14.0 0.00 0.00 0.00 54 1017.6
20260508175428 57 15 11.0 14.0 0.00 0.00 0.00 54 1017.6
20260508174926 57 0 12.0 14.0 0.00 0.00 0.00 53 1017.6
20260508174423 57 320 13.0 16.0 0.00 0.00 0.00 53 1017.6
20260508173919 57 24 13.0 15.0 0.00 0.00 0.00 55 1017.7
20260508173417 56 2 10.0 14.0 0.00 0.00 0.00 56 1017.6
20260508172912 56 357 7.0 13.0 0.00 0.00 0.00 58 1017.9
20260508172410 57 271 6.0 11.0 0.00 0.00 0.00 58 1017.5
20260508171906 57 19 11.0 18.0 0.00 0.00 0.00 56 1018.0
20260508171402 57 18 13.0 14.0 0.00 0.00 0.00 56 1018.1
20260508170859 55 17 9.0 15.0 0.00 0.00 0.00 57 1018.1
20260508170357 55 350 6.0 13.0 0.00 0.00 0.00 60 1018.1
20260508165853 55 353 7.0 13.0 0.00 0.00 0.00 60 1018.1
20260508165351 54 304 11.0 13.0 0.00 0.00 0.00 59 1018.2
20260508164846 55 19 9.0 13.0 0.00 0.00 0.00 61 1018.0
20260508164344 55 2 9.0 13.0 0.00 0.00 0.00 59 1018.2
20260508163841 54 342 10.0 14.0 0.00 0.00 0.00 61 1018.0
20260508163339 53 2 8.0 10.0 0.00 0.00 0.00 62 1018.0
20260508162835 53 333 13.0 16.0 0.00 0.00 0.00 63 1018.0
20260508162332 54 303 10.0 14.0 0.00 0.00 0.00 63 1018.0
20260508161829 55 16 7.0 13.0 0.00 0.00 0.00 62 1018.0
20260508161326 54 8 8.0 13.0 0.00 0.00 0.00 65 1018.0
20260508160823 54 347 7.0 11.0 0.00 0.00 0.00 64 1017.9
20260508160322 54 17 12.0 14.0 0.00 0.00 0.00 65 1018.1
20260508155818 53 358 13.0 15.0 0.00 0.00 0.00 64 1018.0
20260508155315 52 333 6.0 15.0 0.00 0.00 0.00 66 1018.1
20260508154812 52 4 12.0 16.0 0.00 0.00 0.00 67 1018.1
20260508154310 52 0 7.0 11.0 0.00 0.00 0.00 69 1018.0
20260508153806 52 346 11.0 16.0 0.00 0.00 0.00 67 1018.0
20260508153304 53 304 9.0 14.0 0.00 0.00 0.00 67 1017.9
20260508152759 53 96 11.0 18.0 0.00 0.00 0.00 68 1017.9
20260508152256 52 306 11.0 13.0 0.00 0.00 0.00 69 1017.6
20260508151752 51 320 11.0 14.0 0.00 0.00 0.00 70 1017.9
20260508151249 51 3 12.0 14.0 0.00 0.00 0.00 72 1018.0
20260508150745 51 14 11.0 14.0 0.00 0.00 0.00 70 1017.7
20260508150242 52 342 13.0 15.0 0.00 0.00 0.00 71 1017.9
20260508145738 51 341 10.0 22.0 0.00 0.00 0.00 72 1017.7
20260508145235 51 342 13.0 21.0 0.00 0.00 0.00 72 1017.7
20260508144731 51 308 9.0 15.0 0.00 0.00 0.00 73 1017.9
20260508144230 51 299 15.0 17.0 0.00 0.00 0.00 72 1017.7
20260508143727 51 4 13.0 16.0 0.00 0.00 0.00 74 1017.9
20260508143223 50 355 12.0 17.0 0.00 0.00 0.00 75 1017.9
20260508142714 50 298 16.0 18.0 0.00 0.00 0.00 74 1017.7
20260508142211 50 328 15.0 20.0 0.00 0.00 0.00 76 1017.9
20260508141708 50 286 12.0 16.0 0.00 0.00 0.00 76 1017.7
20260508141205 50 321 15.0 17.0 0.00 0.00 0.00 76 1018.0
20260508140703 49 206 11.0 16.0 0.00 0.00 0.00 78 1017.7
20260508140159 49 322 14.0 20.0 0.00 0.00 0.00 77 1017.7
20260508135656 49 334 14.0 21.0 0.00 0.00 0.00 78 1017.7
20260508135151 48 320 14.0 16.0 0.00 0.00 0.00 79 1017.6
20260508134647 48 328 11.0 20.0 0.00 0.00 0.00 79 1017.6
20260508134145 48 313 13.0 15.0 0.00 0.00 0.00 80 1017.6
20260508133642 48 305 13.0 18.0 0.00 0.00 0.00 80 1017.4
20260508133139 48 327 10.0 14.0 0.00 0.00 0.00 82 1017.5
20260508132637 47 320 12.0 14.0 0.00 0.00 0.00 81 1017.4
20260508132133 47 313 13.0 17.0 0.00 0.00 0.00 81 1017.5
20260508131629 46 312 12.0 16.0 0.00 0.00 0.00 82 1017.3
20260508131126 46 345 9.0 14.0 0.00 0.00 0.00 82 1017.1
20260508130622 46 311 11.0 14.0 0.00 0.00 0.00 83 1017.3
20260508130119 45 324 10.0 14.0 0.00 0.00 0.00 83 1017.4
20260508125620 45 300 10.0 15.0 0.00 0.00 0.00 83 1017.0
20260508125118 44 321 12.0 14.0 0.00 0.00 0.00 84 1017.0
20260508124615 44 253 11.0 14.0 0.00 0.00 0.00 85 1017.0
20260508124112 44 298 12.0 15.0 0.00 0.00 0.00 85 1016.8
20260508123610 44 304 10.0 14.0 0.00 0.00 0.00 84 1016.4
20260508123107 44 306 9.0 14.0 0.00 0.00 0.00 85 1016.7
20260508122603 44 313 9.0 11.0 0.00 0.00 0.00 85 1016.4
20260508122101 44 289 9.0 10.0 0.00 0.00 0.00 86 1016.3
20260508121559 44 314 8.0 11.0 0.00 0.00 0.00 85 1016.1
20260508121057 44 322 6.0 11.0 0.00 0.00 0.00 86 1016.3
20260508120554 44 304 10.0 13.0 0.00 0.00 0.00 86 1016.4
20260508120052 44 276 10.0 15.0 0.00 0.00 0.00 86 1016.1
20260508115549 44 340 12.0 14.0 0.00 0.00 0.00 86 1016.1
20260508115046 44 303 8.0 15.0 0.00 0.00 0.00 85 1016.0
20260508114543 44 284 11.0 17.0 0.00 0.00 0.00 85 1016.0
20260508114039 44 216 9.0 16.0 0.00 0.00 0.00 86 1016.1
20260508113537 43 306 15.0 16.0 0.00 0.00 0.00 86 1015.8
20260508113035 43 270 11.0 16.0 0.00 0.00 0.00 86 1015.7
20260508112531 43 277 9.0 16.0 0.00 0.00 0.00 86 1016.1
20260508112027 43 236 9.0 15.0 0.00 0.00 0.00 87 1016.2
20260508111525 43 288 13.0 17.0 0.00 0.00 0.00 87 1016.2
20260508111021 43 276 9.0 11.0 0.00 0.00 0.00 88 1016.1
20260508110520 43 245 5.0 8.0 0.00 0.00 0.00 88 1015.8
20260508110015 43 251 5.0 7.0 0.00 0.00 0.00 89 1016.0
20260508105510 43 270 5.0 6.0 0.00 0.00 0.00 89 1016.0
20260508105008 43 243 4.0 6.0 0.00 0.00 0.00 90 1016.1
20260508104505 43 278 7.0 9.0 0.00 0.00 0.00 90 1016.2
20260508104001 43 290 8.0 11.0 0.00 0.00 0.00 90 1016.3
20260508103458 43 277 7.0 9.0 0.00 0.00 0.00 91 1016.1
20260508102955 43 245 7.0 9.0 0.00 0.00 0.00 91 1016.3
20260508102454 43 310 7.0 9.0 0.00 0.00 0.00 92 1016.6
20260508101950 43 234 6.0 8.0 0.00 0.00 0.00 92 1016.2
20260508101448 44 283 7.0 9.0 0.00 0.00 0.00 91 1015.8
20260508100945 44 308 5.0 7.0 0.00 0.00 0.00 92 1015.8
20260508100444 44 304 6.0 8.0 0.00 0.00 0.00 91 1015.8
20260508095939 44 196 3.0 6.0 0.00 0.00 0.00 91 1015.8
20260508095437 44 289 5.0 7.0 0.00 0.00 0.00 91 1016.1
20260508094934 45 310 6.0 8.0 0.00 0.00 0.00 91 1016.1
20260508094431 44 330 9.0 11.0 0.00 0.00 0.00 91 1016.3
20260508093927 45 287 10.0 13.0 0.00 0.00 0.00 91 1016.2
20260508093425 44 296 9.0 13.0 0.00 0.00 0.00 91 1016.7
20260508092923 45 319 10.0 14.0 0.00 0.00 0.00 90 1016.4
20260508092421 45 296 11.0 13.0 0.00 0.00 0.00 90 1016.6
20260508091919 45 310 13.0 15.0 0.00 0.00 0.00 90 1016.6
20260508091415 45 308 11.0 15.0 0.00 0.00 0.00 90 1016.4
20260508090912 45 306 14.0 17.0 0.00 0.00 0.00 91 1016.6
20260508090411 45 324 15.0 16.0 0.00 0.00 0.00 91 1016.1
20260508085912 45 319 13.0 17.0 0.00 0.00 0.00 91 1016.4
20260508085409 45 301 10.0 15.0 0.00 0.00 0.00 91 1016.3
20260508084905 44 287 11.0 16.0 0.00 0.00 0.00 91 1016.3
20260508084402 44 276 13.0 14.0 0.00 0.00 0.00 90 1016.1
20260508083900 44 264 11.0 13.0 0.00 0.00 0.00 90 1016.2
20260508083357 44 265 9.0 11.0 0.00 0.00 0.00 90 1016.6
20260508082856 44 287 11.0 13.0 0.00 0.00 0.00 90 1016.3
20260508082354 44 299 8.0 10.0 0.00 0.00 0.00 90 1016.3
20260508081852 44 281 8.0 10.0 0.00 0.00 0.00 90 1016.2
20260508081348 44 305 6.0 10.0 0.00 0.00 0.00 90 1016.2
20260508080846 44 242 7.0 9.0 0.00 0.00 0.00 90 1016.1
20260508080343 44 279 5.0 8.0 0.00 0.00 0.00 90 1016.2
20260508075840 44 298 5.0 7.0 0.00 0.00 0.00 90 1016.4
20260508075337 44 281 7.0 9.0 0.00 0.00 0.00 90 1016.0
20260508074835 44 283 6.0 7.0 0.00 0.00 0.00 90 1016.3
20260508074331 44 273 5.0 8.0 0.00 0.00 0.00 90 1016.3
20260508073828 44 261 5.0 7.0 0.00 0.00 0.00 91 1016.2
20260508073326 43 228 3.0 6.0 0.00 0.00 0.00 91 1016.2
20260508072822 43 284 4.0 6.0 0.00 0.00 0.00 92 1016.2